Flag for Canada Weather past 2 weeks in Longueuil, Quebec, Canada

Now
10 °F

Frigid.


Feels Like: 10 °F
Forecast: -10 / 5 °F
Wind: 2 mph from Southwest

Location: Mc Tavish

Current Time: Feb 1, 2015 at 3:09:12 PM

Latest Report: Feb 1, 2015 at 2:00 PM


Visibility: N/A

Pressure: 30.24 "Hg

Humidity: 37%

Dew point: -12 °F

Location of LongueuilLocation

Historic Weather in Longueuil — Graph

°F

Longueuil temperature yesterday

Maximum temperature yesterday: 6 °F (at 11:00 PM)
Minimum temperature yesterday: -8 °F (at 8:00 AM)
Average temperature yesterday: 0 °F

Past Weeks' High & Low Weather Summary

 TemperatureHumidityPressure
High38 °F (Jan 18, 5:00 PM)100% (Jan 19, 2:00 AM)30.31 "Hg (Jan 19, 2:00 AM)
Low-8 °F (Jan 31, 8:00 AM)33% (Jan 28, 11:00 AM)29.28 "Hg (Jan 25, 1:00 AM)
Average14 °F67%29.99 "Hg
* Reported Jan 17 2:00 PM — Feb 1 2:00 PM, Longueuil, Weather by CustomWeather, © 2014

Note: Actual official high and low records may vary slightly from our data, if they occured in-between our weather recording intervals... More about our weather records

Advertising

Longueuil weather history for previous 24 hours

 ConditionsComfort  
Time TempWeatherWind HumidityBarometerVisibility
2:00 PM
Feb 1
10 °FFrigid.2 mph37%30.24 "HgN/A
1:00 PM6 °FFrigid.5 mph47%30.26 "HgN/A
12:00 PM5 °FFrigid.3 mph43%30.29 "HgN/A
11:00 AM4 °FFrigid.2 mph47%30.30 "HgN/A
10:00 AM4 °FFrigid.2 mph52%30.29 "HgN/A
9:00 AM4 °FFrigid.2 mph53%30.28 "HgN/A
8:00 AM3 °FFrigid.2 mph67%30.25 "HgN/A
7:00 AM5 °FFrigid.5 mph74%30.22 "HgN/A
6:00 AM7 °FFrigid.6 mph70%30.18 "HgN/A
5:00 AM6 °FFrigid.6 mph72%30.15 "HgN/A
4:00 AM6 °FFrigid.10 mph76%30.11 "HgN/A
3:00 AM6 °FFrigid.9 mph78%30.10 "HgN/A
2:00 AM7 °FFrigid.2 mph78%30.10 "HgN/A
1:00 AM6 °FFrigid.2 mph74%30.10 "HgN/A
12:00 AM7 °FFrigid.2 mph66%30.11 "HgN/A
11:00 PM
Jan 31
6 °FFrigid.3 mph65%30.12 "HgN/A
10:00 PM5 °FFrigid.6 mph56%30.13 "HgN/A
9:00 PM5 °FFrigid.6 mph55%30.16 "HgN/A
8:00 PM4 °FFrigid.8 mph55%30.17 "HgN/A
7:00 PM3 °FFrigid.8 mph54%30.16 "HgN/A
6:00 PM3 °FFrigid.6 mph53%30.16 "HgN/A
5:00 PM2 °FFrigid.7 mph52%30.15 "HgN/A
4:00 PM3 °FFrigid.7 mph48%30.14 "HgN/A
3:00 PM3 °FFrigid.7 mph45%30.15 "HgN/A
Weather by CustomWeather, © 2014

See weather overviewHow to use our weather pages